www.pogodaiklimat.ru

Погода и климат >> Архив погоды >> Бразилия >> Парана >> Фос-ду-Игуасу


ПОГОДА в Фос-ду-Игуасу

  • Прогноз погоды в Фос-ду-Игуасу
  • Монитор погоды в Фос-ду-Игуасу

АРХИВ ПОГОДЫ в Фос-ду-Игуасу

Время (UTC), дата Ветер
(напр.,м/с)
 
Видим.   Явления Облачность Т
(С)
Тd
(С)
f
(%)
Тe
(С)
Тes
(С)
Комфортность P
(гПа)
Po
(гПа)
Тmin
(С)
Tmax
(С)
R
(мм)
R24
(мм)
S
(см)
01 16.04 З 1
{2}
н/о н/о +24.6 +21.4 82 +31 +31 очень
душно
1014.9 987.9
02 16.04 З 1
{2}
н/о н/о +23.7 +20.9 84 +30 +30 очень
душно
1014.5 987.4
03 16.04 штиль 0
{2}
н/о н/о +23.3 +20.7 85 +31 +31 очень
душно
1014.9 987.8
04 16.04 С 1
{1}
н/о н/о +23.1 +20.7 86 +30 +30 очень
душно
1015.6 988.4
05 16.04 Ю 1
{2}
н/о н/о +22.9 +20.7 87 +30 +30 очень
душно
1014.1 986.9
06 16.04 СЗ 1
{2}
н/о н/о +22.2 +20.2 88 +28 +28 душно 1013.5 986.3
07 16.04 штиль 0
{2}
н/о н/о +22.1 +20.2 89 +28 +28 душно 1013.1 985.9
08 16.04 С 1
{2}
н/о н/о +22.0 +20.2 90 +28 +28 душно 1014.1 986.9
09 16.04 С 1
{2}
н/о н/о +22.1 +20.4 90 +28 +28 душно 1014.3 987.1
10 16.04 СЗ 1
{2}
н/о н/о +21.5 +19.9 91 +27 +27 душно 1014.8 987.5
11 16.04 СЗ 1
{1}
н/о н/о +22.2 +20.7 91 +29 +29 очень
душно
1014.9 987.7
12 16.04 С 1
{2}
н/о н/о +22.9 +20.9 89 +30 +30 очень
душно
1015.5 988.3
13 16.04 СЗ 1
{2}
н/о н/о +24.6 +21.6 83 +31 +31 очень
душно
1015.6 988.6
14 16.04 С 2
{2}
н/о н/о +26.7 +22.4 77 +35 +35 очень
душно
1015.0 988.2
15 16.04 СЗ 1
{3}
н/о н/о +27.0 +21.6 72 +34 +34 очень
душно
1014.6 987.8
16 16.04 С 2
{3}
н/о н/о +27.0 +20.7 68 +34 +34 очень
душно
1014.1 987.3
17 16.04 С 2
{3}
н/о н/о +28.0 +21.3 67 +35 +35 очень
душно
1013.3 986.6
18 16.04 С 2
{3}
н/о н/о +27.1 +20.8 68 +34 +34 очень
душно
1012.6 985.9
19 16.04 С 2
{3}
н/о н/о +27.8 +20.9 66 +35 +35 очень
душно
1012.1 985.4
20 16.04 С 2
{3}
н/о н/о +27.8 +21.0 67 +35 +35 очень
душно
1012.1 985.4
21 16.04 С 1
{3}
н/о н/о +25.8 +19.6 69 +31 +31 очень
душно
1012.1 985.3
22 16.04 С 2
{4}
н/о н/о +22.9 +18.1 74 +28 +28 душно 1012.8 985.7
23 16.04 С 3
{4}
н/о н/о +20.7 +16.5 77 +25 +25 комфорт 1013.5 986.2
00 17.04 С 2
{4}
н/о н/о +19.4 +15.6 79 +22 +22 комфорт 1014.0 986.5
01 17.04 С 1
{3}
н/о н/о +18.4 +15.2 82 +20 +20 1014.4 986.8
02 17.04 С 1
{2}
н/о н/о +17.4 +14.6 84 +18 +18 1014.4 986.7
03 17.04
{2}
н/о н/о +16.7 +14.1 85 1014.2 986.5
04 17.04 штиль 0
{1}
н/о н/о +16.1 +13.8 86 +16 +16 1014.1 986.3
05 17.04 С 1
{1}
н/о н/о +15.9 +13.7 87 +17 +17 1013.9 986.1
06 17.04 С 1
{1}
н/о н/о +16.3 +14.3 88 +18 +18 1013.7 985.9
07 17.04 СЗ 1
{2}
н/о н/о +16.3 +14.4 89 +18 +18 1013.4 985.7
08 17.04 СЗ 1
{1}
н/о н/о +16.4 +14.7 90 +18 +18 1013.2 985.5
09 17.04 З 1
{2}
н/о н/о +16.5 +14.9 90 +18 +18 1013.6 985.9
10 17.04 С 1
{1}
н/о н/о +16.7 +15.1 90 +18 +18 1014.0 986.3
11 17.04 С 1
{1}
н/о н/о +17.1 +15.6 91 +19 +19 1014.6 986.9
12 17.04 СЗ 1
{1}
н/о н/о +17.4 +16.0 91 +19 +19 1015.3 987.6
13 17.04 С 1
{1}
н/о н/о +18.2 +16.8 92 +20 +20 1015.3 987.7
14 17.04 ЮВ 1
{2}
н/о н/о +20.2 +18.5 90 +25 +25 комфорт 1015.3 987.9
15 17.04 СВ 1
{2}
н/о н/о +22.2 +19.6 85 +28 +28 душно 1014.6 987.4
16 17.04 С 1
{2}
н/о н/о +23.3 +19.6 80 +30 +30 очень
душно
1013.5 986.4
17 17.04 С 1
{3}
н/о н/о +23.6 +19.2 76 +28 +28 душно 1013.0 985.9
18 17.04 С 1
{3}
н/о н/о +24.5 +19.2 72 +29 +29 душно 1012.1 985.1
19 17.04
{2}
н/о н/о +24.9 +19.2 71 1011.5 984.6
20 17.04 СЗ 1
{2}
н/о н/о +24.8 +19.0 70 +30 +30 душно 1011.6 984.7
21 17.04 штиль 0
{2}
н/о н/о +24.9 +19.2 71 +30 +30 душно 1011.6 984.7
22 17.04 штиль 0
{1}
н/о н/о +20.9 +16.5 76 +24 +24 комфорт 1012.0 984.7
23 17.04 штиль 0
{1}
н/о н/о +20.4 +16.7 79 +23 +23 комфорт 1012.3 985.0
00 18.04 ЮВ 1
{1}
н/о н/о +18.9 +15.7 82 +22 +22 комфорт 1013.0 985.5
01 18.04 штиль 0
{1}
н/о н/о +17.8 +15.1 84 +18 +18 1013.4 985.8
02 18.04 В 1
{1}
н/о н/о +18.0 +15.7 86 +20 +20 1013.5 985.9
03 18.04 В 1
{1}
н/о н/о +17.5 +15.4 87 +19 +19 1013.8 986.2
04 18.04 штиль 0
{1}
н/о н/о +16.8 +14.9 89 +17 +17 1013.6 985.9
05 18.04 З 1
{1}
н/о н/о +15.7 +14.0 90 +17 +17 1013.6 985.8
06 18.04 ЮВ 1
{2}
н/о н/о +14.3 +12.8 91 +15 +15 1013.5 985.6 0.2
07 18.04 штиль 0
{2}
н/о н/о +14.8 +13.4 91 +14 +14 1013.3 985.4
08 18.04 З 1
{1}
н/о н/о +13.4 +12.0 91 +14 +14 1013.3 985.3
09 18.04 ЮЗ 1
{2}
н/о н/о +14.0 +12.8 92 +15 +15 1013.6 985.6
10 18.04 Ю 1
{1}
н/о н/о +13.5 +12.3 92 +14 +14 1014.4 986.4 0.2
11 18.04 З 1
{1}
н/о н/о +14.7 +13.6 93 +16 +16 1014.8 986.9
12 18.04 З 1
{2}
н/о н/о +16.4 +15.2 93 +18 +18 1015.4 987.6
13 18.04 З 1
{2}
н/о н/о +17.5 +16.3 93 +19 +19 1015.7 988.0
14 18.04 ЮЗ 1
{2}
н/о н/о +20.7 +19.3 92 +26 +26 душно 1015.5 988.1
15 18.04 З 1
{2}
н/о н/о +23.7 +21.0 85 +30 +30 очень
душно
1014.3 987.2
16 18.04 Ю 1
{2}
н/о н/о +26.1 +21.4 75 +33 +33 очень
душно
1012.9 986.1
17 18.04 З 1
{2}
н/о н/о +27.0 +19.9 65 +33 +33 очень
душно
1011.7 985.0
18 18.04 З 1
{2}
н/о н/о +27.4 +19.5 62 +33 +33 очень
душно
1011.0 984.3
19 18.04 З 1
{2}
н/о н/о +27.5 +19.3 61 +33 +33 очень
душно
1010.7 984.0
20 18.04 З 1
{2}
н/о н/о +27.2 +19.6 63 +33 +33 очень
душно
1010.6 983.9
21 18.04 ЮЗ 1
{1}
н/о н/о +25.2 +18.8 68 +30 +30 душно 1010.7 983.8
22 18.04 Ю 1
{2}
н/о н/о +22.6 +17.2 72 +27 +27 душно 1010.9 983.8
23 18.04 Ю 1
{1}
н/о н/о +23.6 +17.2 67 +27 +27 жарко 1011.1 984.1
00 19.04 С 1
{1}
н/о н/о +20.2 +15.9 76 +24 +24 комфорт 1011.9 984.6
01 19.04 СЗ 1
{1}
н/о н/о +19.5 +16.1 81 +23 +23 комфорт 1012.6 985.2
02 19.04 ЮЗ 1
{2}
н/о н/о +18.3 +15.4 83 +20 +20 1012.5 985.0
03 19.04 З 2
{2}
н/о н/о +17.5 +15.0 85 +18 +18 1012.3 984.7
04 19.04 З 1
{2}
н/о н/о +17.4 +15.1 86 +18 +18 1012.3 984.7
05 19.04 СЗ 1
{2}
н/о н/о +17.4 +15.1 86 +19 +19 1012.4 984.8
06 19.04 З 2
{2}
н/о н/о +16.6 +14.5 87 +17 +17 1012.6 984.9
07 19.04 З 1
{2}
н/о н/о +16.9 +15.0 89 +18 +18 1012.6 984.9
08 19.04 З 1
{2}
н/о н/о +17.0 +15.1 89 +18 +18 1012.9 985.2
09 19.04 З 1
{2}
н/о н/о +16.8 +15.0 89 +18 +18 1013.4 985.7
10 19.04 З 1
{3}
н/о н/о +16.8 +15.1 90 +18 +18 1013.9 986.2
11 19.04 ЮЗ 3
{4}
н/о н/о +19.0 +17.2 89 +21 +21 комфорт 1014.2 986.7
12 19.04 ЮЗ 2
{4}
н/о н/о +20.9 +18.6 87 +26 +26 душно 1014.4 987.1
13 19.04 ЮЗ 1
{3}
н/о н/о +23.7 +20.4 82 +29 +29 душно 1014.4 987.3
14 19.04 ЮЗ 1
{3}
н/о н/о +25.9 +21.4 76 +33 +33 очень
душно
1014.2 987.3
15 19.04 ЮЗ 1
{2}
н/о н/о +27.6 +22.2 72 +36 +36 очень
душно
1013.4 986.7
16 19.04 Ю 1
{2}
н/о н/о +29.5 +22.2 65 +38 +38 очень
душно
1012.3 985.8
17 19.04 Ю 1
{3}
н/о н/о +30.4 +20.9 57 +38 +38 очень
душно
1011.2 984.8
18 19.04 Ю 1
{3}
н/о н/о +31.1 +21.2 56 +39 +39 очень
душно
1010.6 984.3
19 19.04 Ю 2
{3}
н/о н/о +30.9 +20.4 54 +38 +38 очень
душно
1009.9 983.6
20 19.04 ЮЗ 1
{3}
н/о н/о +30.0 +20.7 57 +37 +37 очень
душно
1010.0 983.6
21 19.04 ЮЗ 1
{2}
н/о н/о +26.9 +19.7 65 +33 +33 очень
душно
1010.3 983.6
22 19.04 ЮЗ 2
{2}
н/о н/о +25.1 +19.0 69 +30 +30 душно 1010.4 983.5
23 19.04 З 1
{2}
н/о н/о +23.5 +18.7 74 +28 +28 душно 1010.8 983.8
00 20.04 З 2
{2}
н/о н/о +22.7 +18.8 79 +29 +29 очень
душно
1011.4 984.3
01 20.04 З 1
{2}
н/о н/о +22.4 +18.8 80 +28 +28 душно 1011.7 984.6
02 20.04 ЮЗ 2
{2}
н/о н/о +22.7 +19.4 82 +29 +29 очень
душно
1011.7 984.6
03 20.04 З 2
{3}
н/о н/о +22.6 +19.4 82 +29 +29 очень
душно
1012.0 984.9
04 20.04 ЮЗ 2
{2}
н/о н/о +22.5 +19.3 82 +28 +28 душно 1011.8 984.7
05 20.04 З 2
{3}
н/о н/о +21.9 +19.0 84 +27 +27 душно 1011.4 984.2
06 20.04 З 1
{2}
н/о н/о +21.4 +18.6 84 +26 +26 душно 1010.6 983.4
07 20.04 З 1
{3}
н/о н/о +21.2 +18.6 85 +26 +26 душно 1010.4 983.2
08 20.04 З 1
{2}
н/о н/о +20.9 +18.4 86 +27 +27 душно 1011.2 983.9
09 20.04 Ю 1
{2}
н/о н/о +21.0 +18.7 87 +27 +27 душно 1012.4 985.1
10 20.04 ЮЗ 2
{3}
н/о н/о +20.9 +18.8 88 +26 +26 душно 1012.6 985.3
11 20.04 З 1
{3}
н/о н/о +21.3 +19.2 88 +26 +26 душно 1013.4 986.1
12 20.04 Ю 1
{2}
н/о н/о +23.5 +20.9 85 +29 +29 душно 1012.9 985.8
13 20.04 ЮВ 2
{4}
н/о н/о +26.5 +22.0 76 +34 +34 очень
душно
1012.2 985.4
14 20.04 ЮВ 3
{4}
н/о н/о +27.6 +21.9 71 +36 +36 очень
душно
1011.9 985.2
15 20.04 ЮВ 2
{5}
н/о н/о +27.4 +21.6 71 +35 +35 очень
душно
1011.5 984.8
16 20.04 ЮВ 3
{4}
н/о н/о +28.5 +22.4 70 +37 +37 очень
душно
1010.5 983.9
17 20.04 Ю 3
{5}
н/о н/о +29.1 +22.6 68 +38 +38 очень
душно
1008.5 982.0
18 20.04 ЮВ 3
{5}
н/о н/о +28.3 +21.7 67 +36 +36 очень
душно
1008.5 982.0
19 20.04 ЮВ 3
{4}
н/о н/о +26.9 +21.3 71 +34 +34 очень
душно
1008.4 981.8
20 20.04 СЗ 4
{10}
н/о н/о +23.9 +18.8 73 +29 +29 душно 1010.5 983.5
21 20.04 В 2
{10}
н/о н/о +20.1 +17.1 83 +24 +24 комфорт 1012.5 985.1 43
22 20.04 СЗ 2
{3}
н/о н/о +19.8 +17.3 86 +23 +23 комфорт 1013.4 986.0 7
23 20.04 З 1
{5}
н/о н/о +19.8 +17.7 88 +24 +24 комфорт 1013.4 986.0 4
00 21.04 СЗ 2
{6}
н/о н/о +20.0 +18.0 88 +24 +24 комфорт 1013.0 985.6 3
01 21.04 ЮЗ 3
{5}
н/о н/о +19.9 +18.0 89 +23 +23 комфорт 1012.8 985.4 0.4
02 21.04 ЮЗ 4
{5}
н/о н/о +20.2 +18.3 89 +24 +24 комфорт 1011.5 984.2
03 21.04 Ю 3
{5}
н/о н/о +20.8 +18.7 88 +25 +25 комфорт 1011.7 984.4
04 21.04 ЮВ 1
{5}
н/о н/о +20.5 +18.4 88 +26 +26 душно 1011.6 984.3
05 21.04 Ю 1
{2}
н/о н/о +20.3 +18.3 88 +25 +25 комфорт 1011.2 983.9
06 21.04 З 1
{2}
н/о н/о +19.5 +17.7 89 +23 +23 комфорт 1010.1 982.7
07 21.04 ЮЗ 1
{2}
н/о н/о +19.9 +18.2 90 +24 +24 комфорт 1009.7 982.4
08 21.04 З 1
{3}
н/о н/о +19.8 +18.2 90 +24 +24 комфорт 1008.8 981.5 0.4
09 21.04 ЮЗ 1
{2}
н/о н/о +19.7 +18.2 91 +23 +23 комфорт 1009.2 981.9
10 21.04 ЮЗ 1
{2}
н/о н/о +19.6 +18.2 92 +23 +23 комфорт 1009.9 982.6
11 21.04 ЮЗ 2
{3}
н/о н/о +19.9 +18.5 92 +23 +23 комфорт 1010.0 982.7
12 21.04 ЮЗ 2
{3}
н/о н/о +20.3 +18.9 92 +25 +25 комфорт 1010.6 983.3
13 21.04 Ю 1
{2}
н/о н/о +20.5 +19.0 91 +26 +26 душно 1010.5 983.2
14 21.04 В 2
{5}
н/о н/о +20.9 +19.4 91 +26 +26 душно 1012.5 985.2
15 21.04 З 2
{6}
н/о н/о +19.7 +18.3 92 +23 +23 комфорт 1012.3 984.9 29
16 21.04 З 2
{3}
н/о н/о +20.4 +19.1 92 +25 +25 комфорт 1011.8 984.5 8
17 21.04 З 2
{4}
н/о н/о +20.5 +19.2 92 +25 +25 комфорт 1011.5 984.2 0.2
18 21.04 З 2
{4}
н/о н/о +20.9 +19.3 91 +26 +26 душно 1010.1 982.9
19 21.04 СЗ 1
{4}
н/о н/о +20.6 +18.9 90 +26 +26 душно 1010.9 983.6
20 21.04 ЮЗ 3
{4}
н/о н/о +20.5 +18.9 91 +25 +25 комфорт 1009.8 982.5 0.2
21 21.04 ЮЗ 2
{4}
н/о н/о +20.0 +18.5 91 +24 +24 комфорт 1010.3 983.0
22 21.04 Ю 1
{4}
н/о н/о +19.9 +18.4 91 +24 +24 комфорт 1010.5 983.2
23 21.04 СЗ 1
{2}
н/о н/о +19.5 +18.1 92 +23 +23 комфорт 1011.6 984.2
00 22.04 штиль 0
{2}
н/о н/о +19.0 +17.7 92 +20 +20 1011.9 984.4
01 22.04 ЮЗ 1
{1}
н/о н/о +18.9 +17.6 92 +22 +22 комфорт 1012.1 984.6
02 22.04 штиль 0
{1}
н/о н/о +19.1 +17.9 93 +21 +21 комфорт 1012.1 984.7
03 22.04 штиль 0
{1}
н/о н/о +19.2 +18.0 93 +21 +21 комфорт 1012.4 985.0
04 22.04 З 1
{1}
н/о н/о +19.0 +17.8 93 +22 +22 комфорт 1011.7 984.3
05 22.04 СЗ 1
{2}
н/о н/о +19.0 +17.9 93 +22 +22 комфорт 1011.6 984.2
06 22.04 З 1
{2}
н/о н/о +18.5 +17.3 93 +21 +21 комфорт 1011.7 984.2
11 22.04 З 1
{1}
н/о н/о +18.8 +17.8 94 +22 +22 комфорт 1012.9 985.4
12 22.04 З 1
{2}
н/о н/о +20.2 +19.1 93 +25 +25 комфорт 1013.5 986.1
13 22.04 З 1
{2}
н/о н/о +21.7 +20.5 93 +27 +27 душно 1013.2 986.0
14 22.04 ЮЗ 1
{2}
н/о н/о +23.2 +21.5 90 +31 +31 очень
душно
1013.3 986.2
15 22.04 З 1
{2}
н/о н/о +23.7 +21.5 87 +30 +30 очень
душно
1013.2 986.1
16 22.04 ЮЗ 1
{3}
н/о н/о +25.3 +22.5 84 +33 +33 очень
душно
1012.1 985.2
17 22.04 ЮЗ 1
{3}
н/о н/о +26.0 +22.7 82 +34 +34 очень
душно
1011.4 984.6
18 22.04 З 1
{2}
н/о н/о +25.4 +21.7 80 +33 +33 очень
душно
1011.4 984.5
19 22.04 ЮЗ 2
{2}
н/о н/о +26.5 +22.4 78 +35 +35 очень
душно
1010.2 983.5
20 22.04 З 1
{2}
н/о н/о +26.6 +22.5 78 +35 +35 очень
душно
1010.5 983.8
21 22.04 СЗ 1
{1}
н/о н/о +24.8 +21.2 80 +31 +31 очень
душно
1010.9 984.0
22 22.04 З 1
{1}
н/о н/о +23.7 +20.8 84 +30 +30 очень
душно
1011.2 984.2
23 22.04 З 1
{1}
н/о н/о +23.0 +20.5 86 +30 +30 очень
душно
1012.0 984.9

 

Местоположение метеостанции Фос-ду-Игуасу (Парана, Бразилия): широта -25.60 долгота -54.48 высота над уровнем моря 233 м.

В архиве по умолчанию представлена погода в Фос-ду-Игуасу за последнюю неделю. Архивные данные за месяц целиком и за предыдущие месяцы, начиная с января 2011 года, Вы можете получить, выбрав интересующий диапазон дат из раскрывающегося списка и нажав кнопку "Ввод!".


*Определитесь, кто Вы:
робот инопланетянин человек

Внимание! Время в таблицах - всемирное. Для получения местного времени необходимо прибавить поправку, которая равна -3 ч.

Смотрите также архив погоды в соседних городах и на ближайших метеорологических станциях:

Погода в Фос-ду-Игуасу (Парана, Бразилия) (14 км)
Погода в Игуасу (Аргентина) (15 км)
Погода в Аэропорту Гуарани (Парагвай) (41 км)
Погода в Планарту (Парана, Бразилия) (74 км)
Погода в Дионисио Серкейра (Парана, Бразилия) (114 км)
Погода в Марешал-Кандиду-Рондоне (Парана, Бразилия) (128 км)
Погода в Дойс-Визиньюсе (Парана, Бразилия) (139 км)
Погода в Сан-Мигель-ду-Осте (Санта-Катарина, Бразилия) (164 км)
Погода в Капитан Меса (Парагвай) (164 км)
Погода в Сальто-дель-Гуайре (Парагвай) (173 км)

Пояснения к столбцам:

Ветер - указаны скорость ветра в м/с - средняя за 10 мин, порывы в срок и между сроками (в фигурных скобках) и направление, откуда дует ветер: С - северный, СВ - северо-восточный, В - восточный, ЮВ - юго-восточный, Ю - южный, ЮЗ - юго-западный, З - западный, СЗ - северо-западный.
Видимость - горизонтальная дальность видимости в метрах или километрах. При видимости от 1 до 10 км при отсутствии осадков обычно наблюдается дымка, при ухудшении видимости до 1 км и менее - туман. В сухую погоду видимость может ухудшаться дымом, пылью или мглою.
Явления - указаны атмосферные явления, наблюдавшиеся в срок или в последний час перед сроком; фигурными скобками обозначены явления, наблюдавшиеся между сроками (за 1-3 часа до срока); квадратными скобками обозначены град или гололедные отложения с указанием их диаметра в мм.
Облачность - указаны через наклонную черту общая и нижняя облачность в баллах и высота нижней границы облаков в метрах; квадратными скобками обозначены формы облаков: Ci - перистые, Cs - перисто-слоистые, Cc - перисто-кучевые, Ac - высококучевые, As - высокослоистые, Sc - слоисто-кучевые, Ns - слоисто-дождевые, Cu - кучевые, Cb - кучево-дождевые. Подробнее классификацию облаков см. в Атласе облаков (PDF).
T - Температура воздуха - температура, измеренная на высоте 2 м над землей.
Td - Температура точки росы - температура, при понижении до которой содержащийся в воздухе водяной пар достигнет насыщения.
f - Относительная влажность воздуха - влажноcть воздуха, измеренная на высоте 2 м над землей.
Te - Эффективная температура - температура, которую ощущает одетый по сезону человек в тени. Характеристика душности погоды. При расчете учитывается влияние влажности воздуха и скорости ветра на теплоощущения человека.
Tes - Эффективная температура на солнце - температура, которую ощущает человек, с поправкой на солнечный нагрев. Характеристика знойности погоды. Зависит от высоты солнца над горизонтом, облачности и скорости ветра. Ночью, в пасмурную погоду, а также при ветре 12 м/с и более поправка равна нулю.
P - Атмосферное давление - приведенное к уровню моря атмосферное давление.
Po - Атмосферное давление - измеренное на уровне метеостанции атмосферное давление.
Tmin - Минимальная температура - минимум температуры воздуха на высоте 2 м над землей.
Tmax - Максимальная температура - максимум температуры воздуха на высоте 2 м над землей.
R - Количество осадков - Количество выпавших осадков за период времени, мм. При наведении курсора мыши на число - период времени, за который выпало указанное количество осадков.
R24 - Количество осадков - Количество выпавших осадков за 24 часа, мм.
S - Снежный покров - Высота снежного покрова, см. При наведении курсора мыши на число - состояние снежного покрова и степень покрытия местности в баллах.